EW4973 Weather Reports


time (UTC)temp
C
wind
direction
speed
KPH
gust
KPH
rain 1hr
cm
rain 24hr
cm
rain mn
cm
humidity
%
barometer
mb
20260509043037 12 192 6.4 19.3 0.03 0.64 0.00 87 1005.5
20260509041533 12 186 8.0 17.7 0.05 0.64 0.00 87 1005.6
20260509040038 12 189 4.8 12.9 0.08 0.64 0.00 87 1005.4
20260509034541 12 155 6.4 14.5 0.10 0.64 0.64 88 1005.5
20260509033028 12 185 6.4 16.1 0.08 0.61 0.61 88 1005.7
20260509031627 12 175 3.2 11.3 0.05 0.58 0.58 88 1005.8
20260509030027 12 198 6.4 12.9 0.05 0.56 0.56 88 1005.9
20260509024528 12 212 3.2 14.5 0.03 0.53 0.53 88 1006.0
20260509023028 12 257 4.8 14.5 0.03 0.53 0.53 88 1006.0
20260509021524 12 186 6.4 17.7 0.05 0.53 0.53 88 1006.0
20260509020023 12 236 8.0 17.7 0.03 0.51 0.51 87 1005.9
20260509014522 12 171 8.0 22.5 0.03 0.51 0.51 87 1005.9
20260509013023 12 206 3.2 14.5 0.00 0.48 0.48 87 1005.8
20260509011521 12 183 1.6 9.7 0.03 0.48 0.48 87 1005.9
20260509010024 12 194 4.8 14.5 0.08 0.48 0.48 87 1005.7
20260509004531 12 197 4.8 11.3 0.08 0.48 0.48 87 1005.8
20260509003021 12 196 3.2 16.1 0.08 0.48 0.48 87 1005.9
20260509001520 12 186 3.2 11.3 0.10 0.46 0.46 87 1006.0
20260509000019 12 180 1.6 9.7 0.08 0.41 0.41 88 1006.0
20260508234516 12 208 0.0 12.9 0.10 0.41 0.41 88 1006.1
20260508233016 12 192 6.4 14.5 0.15 0.41 0.41 88 1006.1
20260508231515 12 181 4.8 12.9 0.15 0.36 0.36 88 1006.2
20260508230015 12 191 1.6 9.7 0.20 0.33 0.33 88 1006.3
20260508224514 12 198 0.0 8.0 0.25 0.30 0.30 88 1006.2
20260508223013 12 277 0.0 6.4 0.23 0.25 0.25 88 1006.3
20260508221513 12 277 1.6 8.0 0.20 0.20 0.20 88 1006.6
20260508220012 13 288 4.8 14.5 0.13 0.13 0.13 87 1006.5
20260508214510 13 282 6.4 19.3 0.05 0.05 0.05 86 1006.6
20260508213015 13 304 11.3 22.5 0.03 0.03 0.03 82 1006.2
20260508211506 16 295 6.4 12.9 0.00 0.00 0.00 71 1006.0
20260508210009 17 209 0.0 3.2 0.00 0.00 0.00 65 1005.6
20260508204507 17 209 0.0 3.2 0.00 0.00 0.00 64 1005.7
20260508203007 16 209 0.0 3.2 0.00 0.00 0.00 60 1006.0
20260508201600 16 209 0.0 6.4 0.00 0.00 0.00 59 1006.3
20260508200059 16 216 1.6 16.1 0.00 0.00 0.00 58 1006.4
20260508194657 16 199 3.2 11.3 0.00 0.00 0.00 57 1006.7
20260508193110 16 209 4.8 16.1 0.00 0.00 0.00 57 1006.9
20260508191558 16 217 3.2 9.7 0.00 0.00 0.00 57 1007.1
20260508190106 16 220 4.8 12.9 0.00 0.00 0.00 57 1007.3
20260508184555 16 207 4.8 12.9 0.00 0.00 0.00 55 1007.5
20260508183109 16 193 6.4 17.7 0.00 0.00 0.00 55 1007.5
20260508181551 17 213 9.7 16.1 0.00 0.00 0.00 53 1007.7
20260508180059 17 234 8.0 22.5 0.00 0.00 0.00 52 1007.5
20260508174603 17 196 11.3 16.1 0.00 0.00 0.00 50 1007.5
20260508173046 17 248 11.3 17.7 0.00 0.00 0.00 51 1007.6
20260508171544 17 205 8.0 19.3 0.00 0.00 0.00 51 1008.0
20260508170045 17 177 9.7 20.9 0.00 0.00 0.00 51 1008.2
20260508164545 17 211 6.4 16.1 0.00 0.00 0.00 53 1008.6
20260508163037 16 194 6.4 19.3 0.00 0.00 0.00 53 1008.9
20260508161533 16 232 4.8 16.1 0.00 0.00 0.00 55 1009.1
20260508160035 17 233 4.8 11.3 0.00 0.00 0.00 55 1009.1
20260508154529 16 148 6.4 12.9 0.00 0.00 0.00 55 1009.3
20260508153035 16 219 4.8 14.5 0.00 0.00 0.00 56 1009.4
20260508151527 16 269 6.4 25.7 0.00 0.00 0.00 55 1009.3
20260508150029 16 227 6.4 14.5 0.00 0.00 0.00 55 1009.4
20260508144527 16 220 4.8 17.7 0.00 0.00 0.00 56 1009.5
20260508143020 15 240 8.0 17.7 0.00 0.00 0.00 57 1009.8
20260508141515 15 209 4.8 14.5 0.00 0.00 0.00 57 1009.8
20260508140020 14 85 6.4 16.1 0.00 0.00 0.00 58 1010.0
20260508134507 13 225 6.4 14.5 0.00 0.00 0.00 60 1010.1
20260508133002 13 209 6.4 14.5 0.00 0.00 0.00 61 1010.2
20260508131607 12 217 3.2 11.3 0.00 0.00 0.00 62 1010.3
20260508130054 12 213 4.8 9.7 0.00 0.00 0.00 61 1010.2
20260508124549 11 200 1.6 8.0 0.00 0.00 0.00 63 1010.5
20260508123052 11 169 0.0 6.4 0.00 0.00 0.00 67 1010.6
20260508121540 10 169 1.6 4.8 0.00 0.00 0.00 77 1010.5
20260508120047 8 171 0.0 6.4 0.00 0.00 0.00 79 1010.6
20260508114540 8 171 0.0 3.2 0.00 0.00 0.00 76 1010.6
20260508113031 8 171 0.0 3.2 0.00 0.00 0.00 73 1010.5
20260508111529 8 168 1.6 6.4 0.00 0.00 0.00 71 1010.2
20260508110024 9 212 1.6 9.7 0.00 0.00 0.00 67 1010.4
20260508104521 9 287 8.0 12.9 0.00 0.00 0.00 64 1010.3
20260508103022 10 189 3.2 11.3 0.00 0.00 0.00 64 1009.8
20260508101516 10 207 3.2 11.3 0.00 0.00 0.00 63 1009.8
20260508100015 10 190 1.6 12.9 0.00 0.00 0.00 63 1009.6
20260508094511 10 190 1.6 9.7 0.00 0.00 0.00 65 1009.8
20260508093010 10 186 3.2 9.7 0.00 0.00 0.00 65 1009.9
20260508091513 10 182 3.2 8.0 0.00 0.00 0.00 65 1010.0
20260508090009 10 212 1.6 6.4 0.00 0.00 0.00 63 1010.1
20260508084504 10 215 1.6 8.0 0.00 0.00 0.00 65 1010.3
20260508083003 10 215 1.6 8.0 0.00 0.00 0.00 66 1010.4
20260508081509 10 232 1.6 8.0 0.00 0.00 0.00 65 1010.6
20260508080002 10 217 3.2 9.7 0.00 0.00 0.00 63 1010.6
20260508074501 10 207 3.2 8.0 0.00 0.00 0.00 62 1010.5
20260508073100 10 213 1.6 8.0 0.00 0.00 0.00 61 1010.4
20260508071604 10 202 3.2 11.3 0.00 0.00 0.00 60 1010.3
20260508070058 10 196 4.8 12.9 0.00 0.00 0.00 61 1010.5
20260508064555 10 200 3.2 11.3 0.00 0.00 0.00 61 1010.7
20260508063104 10 220 3.2 11.3 0.00 0.00 0.00 62 1010.9
20260508061555 10 208 1.6 8.0 0.00 0.00 0.00 63 1010.8
20260508060054 10 208 1.6 11.3 0.00 0.00 0.00 61 1010.8
20260508054553 10 184 3.2 9.7 0.00 0.00 0.00 62 1010.8
20260508053104 10 178 3.2 9.7 0.00 0.00 0.00 62 1010.7
20260508051552 10 186 1.6 9.7 0.00 0.00 0.00 63 1010.9
20260508050050 10 179 3.2 8.0 0.00 0.00 0.00 64 1010.8
20260508044549 10 181 3.2 9.7 0.00 0.00 0.00 65 1010.8